Skip Page Navigation
NASA JPL Caltech
NASA Logo - Jet Propulsion Laboratory + View the NASA Portal
+ Center for Near-Earth Object Studies
JPL Home Earth Solar System Stars & Galaxies Technology
JPL Solar System Dynamics
BODIES ORBITS EPHEMERIDES TOOLS PHYSICAL DATA DISCOVERY FAQ SITE MAP
IMPORTANT: The SSD Announcement email list is now available. Major changes are coming in the near future, including possible hostname and/or URL changes. To be notified of such changes, subscribe to this email list.

Please visit this page for more details.


JPL Small-Body Database Browser
Search: [ help ]  
523725 (2014 MC70)
Classification: TransNeptunian Object          SPK-ID: 2523725
Ephemeris | Orbit Diagram | Orbital Elements | Mission Design | Physical Parameters | Discovery Circumstances ]

[ show orbit diagram ]
Orbital Elements at Epoch 2459000.5 (2020-May-31.0) TDB
Reference: JPL 5 (heliocentric ecliptic J2000)
 Element Value Uncertainty (1-sigma)   Units 
e .1333186179812424 2.6342e-05  
a 45.48330842571075 0.0016947 au
q 39.41953660518039 0.00032087 au
i 7.684633643669185 3.6185e-05 deg
node 25.61110664131332 0.000782 deg
peri 281.9148628380412 0.015671 deg
M 11.67751448454924 0.01183 deg
tp 2455366.169557325604
(2010-Jun-18.66955733)
3.6811 TDB
period 112040.8766004015
306.75
6.262
0.01714
d
yr
n .003213113025560796 1.7958e-07 deg/d
Q 51.5470802462411 0.0019207 au
  Orbit Determination Parameters
   # obs. used (total)      120  
   data-arc span      2669 days (7.31 yr)  
   first obs. used      2010-08-18  
   last obs. used      2017-12-08  
   planetary ephem.      DE431  
   SB-pert. ephem.      SB431-N16  
   condition code      3  
   norm. resid. RMS      .55651  
   source      ORB  
   producer      Otto Matic  
   solution date      2018-Oct-04 12:52:45  

Additional Information
 Earth MOID = 38.4138 au 
 Jupiter MOID = 34.3623 au 
 T_jup = 5.922 
[ hide covariance matrix ]
Orbital Elements at Epoch 2457016.5 (2014-Dec-25.0) TDB
Reference: JPL 5 (heliocentric ecliptic J2000)
 Element Value Uncertainty (1-sigma)   Units 
e .1218244065376833 2.6208e-05  
q 39.41176850517741 0.0003267 au
tp 2455232.470579238239
(2010-Feb-04.97057924)
4.0224 TDB
node 25.52473564228816 0.00078479 deg
peri 281.4941064899224 0.017039 deg
i 7.69102097828418 3.6561e-05 deg
  Orbit Determination Parameters
   # obs. used (total)      120  
   data-arc span      2669 days (7.31 yr)  
   first obs. used      2010-08-18  
   last obs. used      2017-12-08  
   planetary ephem.      DE431  
   SB-pert. ephem.      SB431-N16  
   condition code      3  
   norm. resid. RMS      .55651  
   source      ORB  
   producer      Otto Matic  
   solution date      2018-Oct-04 12:52:45  

Additional Information
 Jupiter MOID = 34.3623 au 
 T_jup = 5.922 
Orbit Covariance (6×6)
  e q tp node peri i
e 6.868794701061213E-10 6.660891480268478E-9 -1.628373203658494E-5 2.528134998543863E-11 -6.894904987762465E-8 2.90060218487025E-11
q 6.660891480268478E-9 1.067296540582003E-7 .0006336542940271387 -5.390189899543597E-9 2.681551843789472E-6 5.817714199810599E-10
tp -1.628373203658494E-5 .0006336542940271387 16.18009973002052 -.0001120600109391569 .06846566684583216 5.066056984187118E-6
node 2.528134998543863E-11 -5.390189899543597E-9 -.0001120600109391569 6.15897434144793E-7 -1.083763575943042E-6 -2.829045923309796E-8
peri -6.894904987762465E-8 2.681551843789472E-6 .06846566684583216 -1.083763575943042E-6 .000290315024367443 4.943482982024781E-8
i 2.90060218487025E-11 5.817714199810599E-10 5.066056984187118E-6 -2.829045923309796E-8 4.943482982024781E-8 1.336678310528667E-9

Ephemeris | Orbit Diagram | Orbital Elements | Mission Design | Physical Parameters | Discovery Circumstances ]

Physical Parameter Table
Parameter Symbol Value Units Sigma Reference Notes
absolute magnitude H 6.2   n/a MPO450804  

523725 (2014 MC70)          Discovered 2010-Aug-18 by Pan-STARRS 1 at Haleakala
Reference: Last Updated: 2018-10-01
Ephemeris | Orbit Diagram | Orbital Elements | Mission Design | Physical Parameters | Discovery Circumstances ]
ABOUT SSD CREDITS/AWARDS PRIVACY/COPYRIGHT GLOSSARY LINKS
FirstGov 2020-Feb-19 07:54 UT
(server date/time)  
NASA Home Page
Site Manager:   Ryan S. Park
Webmaster  Alan B. Chamberlin